Content
SEND FEEDBACK

Daily
Averages
Monthly
Summary
Egypt

ASYUT, EGYPT


Home > Middle East > Egypt
Elevation: 230 feet     Latitude: 27 03N     Longitude: 031 01E

WEATHER
 
SELECT A DAY
Number of Records: 84,779;   Date Range: 4/13/99 - 7/8/14
 
SHARE

PRINT THIS DATA

[ ← Previous Day ]
WEATHER ALMANAC - FEBRUARY 13, 2013
[ Next Day → ]
[ °C ]   °F
Weather ElementAverageHighLow
Temperature57.8 °F73.4 °F (2:00 pm)41 °F (6:00 am)
Dewpoint41.5 °F46.4 °F (11:00 am)37.4 °F (11:00 pm)
Humidity57.9 %100 % (6:00 am)21 % (2:00 pm)
Barometer30.03 in30.39 in (8:00 am)29.98 in (2:00 pm)
Wind Speed3.2 mph8.1 mph (5:00 pm)
Weather ElementAverage
Visibility5.4 mi
Wind DirectionWSW (249.2 °)

Weather ElementTotal
Precipitation---
Heating Degree Days7.8 (Base 65)
Growing Degree Days7.2 (Base 50)
Averaged from 24 records on February 13, 2013
WEATHER CONDITIONS BREAKOUT
WIND DIRECTION BREAKOUT
WEATHER BY HOUR - FEBRUARY 13, 2013
[ °C ]   °F
Local TimeTemperatureDewpointHumidityBarometerVisibilityWind DirectionWind SpeedGust SpeedPrecipitationEventsConditions
1:00 AM48.2 °F42.8 °F82 %30.04 inNW (320°)6.9 mphClear
2:00 AM46.0 °F41.0 °F78 %30.06 in6.0 miNNW (330°)5.8 mph
2:00 AM46.4 °F41.0 °F81 %30.04 inNNW (330°)5.8 mphClear
6:00 AM41.0 °F41.0 °F100 %30.04 inEast (90°)2.3 mphClear
7:00 AM41.0 °F41.0 °F100 %30.04 in5.0 miWNW (290°)2.3 mph
8:00 AM42.8 °F39.2 °F87 %30.06 in5.0 miSW (220°)1.2 mph
8:00 AM42.0 °F40.0 °F88 %30.39 in5.0 miSW (220°)1.2 mphMist
9:00 AM50.0 °F42.8 °F76 %30.06 in5.0 miWest (280°)1.2 mph
10:00 AM55.4 °F44.6 °F67 %30.06 inWest (280°)1.2 mphClear
11:00 AM62.6 °F46.4 °F55 %30.06 inWSW (240°)1.2 mphClear
12:00 PM68.0 °F44.6 °F43 %30.04 inWNW (300°)1.2 mphClear
1:00 PM69.8 °F42.8 °F38 %30.01 inNNW (340°)3.5 mphClear
2:00 PM73.4 °F41.0 °F31 %30.01 inSouth (180°)2.3 mphClear
2:00 PM73.0 °F41.0 °F21 %29.98 in6.0 miSouth (180°)2.3 mphClear
3:00 PM73.4 °F39.2 °F29 %29.98 inEast (80°)3.5 mphClear
4:00 PM73.4 °F41.0 °F31 %29.98 inNW (310°)2.3 mphClear
5:00 PM68.0 °F41.0 °F37 %29.98 inNorth (360°)8.1 mphClear
6:00 PM64.4 °F41.0 °F42 %29.98 inNNE (20°)5.8 mphClear
7:00 PM62.6 °F42.8 °F48 %29.98 inNorth (10°)4.6 mphClear
8:00 PM60.0 °F41.0 °F37 %29.98 in6.0 miNorth (350°)4.6 mphClear
8:00 PM60.8 °F41.0 °F48 %29.98 inNorth (350°)4.6 mphClear
9:00 PM57.2 °F41.0 °F55 %29.98 inNorth (360°)1.2 mphClear
10:00 PM55.4 °F41.0 °F58 %29.98 inWNW (300°)1.2 mphClear
11:00 PM51.8 °F37.4 °F58 %29.98 inWSW (240°)2.3 mphClear
Hourly data recorded from HEAT, located miles away from Asyut, Egypt







STORIES FROM OUR PARTNERS